Вернуться в каталог

ONEWEB-0355

АктивенСвязьPO
NORAD 49218·PAYLOAD·🇬🇧 United Kingdom

Запущен Sep 14, 2021 с Baikonur Cosmodrome

Loading…

Ближайшие Пролёты (ближайшие 24 часа)

TLE

СвежийSource: CelesTrak SupGP

Эпоха: Sep 14, 2026, 19:29 UTC

1 49218C 21083AJ  26257.81231896 -.00001746  00000+0 -47856-2 0  2576
2 49218  87.8925 302.4021 0001730  93.2508   3.4844 13.13474413    10

Отслеживайте ONEWEB-0355 в реальном времени с AllMySat

Download on the App Store